| time (UTC) | temp F | wind direction | speed MPH | gust MPH | rain 1hr in | rain 24hr in | rain mn in | humidity % | barometer mb |
| 20260905231538 | 74 | 345 | 0.0 | 1.0 | 0.00 | 0.00 | 0.00 | 48 | 1015.1 |
| 20260905230036 | 74 | 345 | 0.0 | 0.0 | 0.00 | 0.00 | 0.00 | 48 | 1015.2 |
| 20260905224534 | 74 | 345 | 0.0 | 0.0 | 0.00 | 0.00 | 0.00 | 46 | 1015.4 |
| 20260905223033 | 75 | 345 | 0.0 | 0.0 | 0.00 | 0.00 | 0.00 | 47 | 1015.4 |
| 20260905221532 | 75 | 345 | 0.0 | 0.0 | 0.00 | 0.00 | 0.00 | 46 | 1015.4 |
| 20260905220033 | 75 | 345 | 0.0 | 0.0 | 0.00 | 0.00 | 0.00 | 46 | 1015.4 |
| 20260905214529 | 75 | 345 | 0.0 | 0.0 | 0.00 | 0.00 | 0.00 | 46 | 1015.4 |
| 20260905213027 | 76 | 345 | 0.0 | 0.0 | 0.00 | 0.00 | 0.00 | 46 | 1015.5 |
| 20260905211551 | 76 | 345 | 0.0 | 2.0 | 0.00 | 0.00 | 0.00 | 45 | 1015.4 |
| 20260905210022 | 77 | 345 | 0.0 | 2.0 | 0.00 | 0.00 | 0.00 | 45 | 1015.6 |
| 20260905204521 | 78 | 345 | 0.0 | 1.0 | 0.00 | 0.00 | 0.00 | 44 | 1015.5 |
| 20260905203021 | 79 | 345 | 0.0 | 1.0 | 0.00 | 0.00 | 0.00 | 42 | 1015.4 |
| 20260905201530 | 79 | 345 | 0.0 | 1.0 | 0.00 | 0.00 | 0.00 | 41 | 1015.4 |
| 20260905200021 | 80 | 345 | 0.0 | 1.0 | 0.00 | 0.00 | 0.00 | 39 | 1015.4 |
| 20260905194520 | 81 | 345 | 0.0 | 3.0 | 0.00 | 0.00 | 0.00 | 38 | 1015.5 |
| 20260905193019 | 81 | 350 | 0.0 | 2.0 | 0.00 | 0.00 | 0.00 | 37 | 1015.4 |
| 20260905191519 | 81 | 350 | 0.0 | 3.0 | 0.00 | 0.00 | 0.00 | 36 | 1015.4 |
| 20260905190018 | 81 | 54 | 0.0 | 3.0 | 0.00 | 0.00 | 0.00 | 37 | 1015.5 |
| 20260905184518 | 82 | 54 | 0.0 | 1.0 | 0.00 | 0.00 | 0.00 | 37 | 1015.6 |
| 20260905183028 | 82 | 54 | 0.0 | 3.0 | 0.00 | 0.00 | 0.00 | 37 | 1015.4 |
| 20260905181517 | 82 | 54 | 0.0 | 2.0 | 0.00 | 0.00 | 0.00 | 37 | 1015.3 |
| 20260905180017 | 83 | 54 | 0.0 | 2.0 | 0.00 | 0.00 | 0.00 | 36 | 1015.1 |
| 20260905174517 | 83 | 54 | 0.0 | 4.0 | 0.00 | 0.00 | 0.00 | 36 | 1015.1 |
| 20260905173032 | 84 | 355 | 1.0 | 4.0 | 0.00 | 0.00 | 0.00 | 35 | 1014.9 |
| 20260905171514 | 84 | 15 | 1.0 | 4.0 | 0.00 | 0.00 | 0.00 | 35 | 1014.7 |
| 20260905170014 | 85 | 355 | 1.0 | 8.0 | 0.00 | 0.00 | 0.00 | 35 | 1014.7 |
| 20260905164513 | 85 | 9 | 1.0 | 5.0 | 0.00 | 0.00 | 0.00 | 35 | 1014.7 |
| 20260905163015 | 86 | 272 | 1.0 | 4.0 | 0.00 | 0.00 | 0.00 | 35 | 1014.8 |
| 20260905161512 | 87 | 324 | 2.0 | 8.0 | 0.00 | 0.00 | 0.00 | 33 | 1014.8 |
| 20260905160011 | 88 | 36 | 1.0 | 6.0 | 0.00 | 0.00 | 0.00 | 31 | 1014.7 |
| 20260905154511 | 88 | 335 | 3.0 | 14.0 | 0.00 | 0.00 | 0.00 | 30 | 1014.8 |
| 20260905153010 | 89 | 345 | 3.0 | 8.0 | 0.00 | 0.00 | 0.00 | 29 | 1014.8 |
| 20260905151509 | 89 | 292 | 3.0 | 11.0 | 0.00 | 0.00 | 0.00 | 30 | 1014.8 |
| 20260905150009 | 89 | 311 | 8.0 | 18.0 | 0.00 | 0.00 | 0.00 | 30 | 1014.9 |
| 20260905144508 | 90 | 355 | 4.0 | 11.0 | 0.00 | 0.00 | 0.00 | 30 | 1014.7 |
| 20260905143006 | 90 | 321 | 5.0 | 12.0 | 0.00 | 0.00 | 0.00 | 30 | 1014.7 |
| 20260905141520 | 90 | 333 | 4.0 | 13.0 | 0.00 | 0.00 | 0.00 | 32 | 1014.8 |
| 20260905140006 | 90 | 328 | 3.0 | 10.0 | 0.00 | 0.00 | 0.00 | 32 | 1014.7 |
| 20260905134508 | 90 | 62 | 3.0 | 12.0 | 0.00 | 0.00 | 0.00 | 32 | 1014.8 |
| 20260905133005 | 90 | 350 | 3.0 | 10.0 | 0.00 | 0.00 | 0.00 | 32 | 1014.9 |
| 20260905131505 | 91 | 118 | 2.0 | 9.0 | 0.00 | 0.00 | 0.00 | 31 | 1014.9 |
| 20260905130002 | 91 | 50 | 3.0 | 12.0 | 0.00 | 0.00 | 0.00 | 31 | 1015.0 |
| 20260905124558 | 91 | 317 | 4.0 | 10.0 | 0.00 | 0.00 | 0.00 | 31 | 1015.0 |
| 20260905123053 | 90 | 78 | 3.0 | 12.0 | 0.00 | 0.00 | 0.00 | 32 | 1015.1 |
| 20260905121550 | 90 | 50 | 3.0 | 12.0 | 0.00 | 0.00 | 0.00 | 32 | 1015.2 |
| 20260905120051 | 90 | 350 | 2.0 | 13.0 | 0.00 | 0.00 | 0.00 | 33 | 1015.3 |
| 20260905114550 | 90 | 53 | 3.0 | 11.0 | 0.00 | 0.00 | 0.00 | 33 | 1015.5 |
| 20260905113048 | 90 | 14 | 3.0 | 12.0 | 0.00 | 0.00 | 0.00 | 34 | 1015.5 |
| 20260905111547 | 89 | 4 | 4.0 | 13.0 | 0.00 | 0.00 | 0.00 | 34 | 1015.5 |
| 20260905110104 | 89 | 6 | 4.0 | 15.0 | 0.00 | 0.00 | 0.00 | 34 | 1015.5 |
| 20260905104545 | 89 | 14 | 2.0 | 13.0 | 0.00 | 0.00 | 0.00 | 34 | 1015.6 |
| 20260905103048 | 89 | 355 | 4.0 | 14.0 | 0.00 | 0.00 | 0.00 | 33 | 1015.6 |
| 20260905101549 | 89 | 324 | 5.0 | 14.0 | 0.00 | 0.00 | 0.00 | 32 | 1015.6 |
| 20260905100035 | 89 | 322 | 4.0 | 16.0 | 0.00 | 0.00 | 0.00 | 33 | 1015.7 |
| 20260905094532 | 88 | 339 | 5.0 | 16.0 | 0.00 | 0.00 | 0.00 | 33 | 1015.7 |
| 20260905093027 | 88 | 270 | 4.0 | 15.0 | 0.00 | 0.00 | 0.00 | 33 | 1015.7 |
| 20260905091525 | 88 | 321 | 6.0 | 13.0 | 0.00 | 0.00 | 0.00 | 34 | 1015.9 |
| 20260905090022 | 88 | 298 | 6.0 | 20.0 | 0.00 | 0.00 | 0.00 | 33 | 1015.8 |
| 20260905084519 | 87 | 332 | 4.0 | 14.0 | 0.00 | 0.00 | 0.00 | 37 | 1015.8 |
| 20260905083020 | 87 | 299 | 6.0 | 15.0 | 0.00 | 0.00 | 0.00 | 36 | 1015.9 |
| 20260905081513 | 87 | 341 | 5.0 | 16.0 | 0.00 | 0.00 | 0.00 | 36 | 1016.0 |
| 20260905080011 | 86 | 79 | 2.0 | 14.0 | 0.00 | 0.00 | 0.00 | 37 | 1015.8 |
| 20260905074510 | 85 | 8 | 5.0 | 13.0 | 0.00 | 0.00 | 0.00 | 39 | 1015.9 |
| 20260905073100 | 85 | 45 | 3.0 | 11.0 | 0.00 | 0.00 | 0.00 | 40 | 1015.7 |
| 20260905071556 | 85 | 312 | 7.0 | 14.0 | 0.00 | 0.00 | 0.00 | 41 | 1015.6 |
| 20260905064548 | 84 | 54 | 3.0 | 12.0 | 0.00 | 0.00 | 0.00 | 41 | 1015.7 |
| 20260905063050 | 83 | 246 | 1.0 | 8.0 | 0.00 | 0.00 | 0.00 | 43 | 1015.6 |
| 20260905061539 | 82 | 337 | 3.0 | 6.0 | 0.00 | 0.00 | 0.00 | 44 | 1015.4 |
| 20260905060035 | 82 | 57 | 3.0 | 10.0 | 0.00 | 0.00 | 0.00 | 47 | 1015.3 |
| 20260905054535 | 81 | 26 | 2.0 | 8.0 | 0.00 | 0.00 | 0.00 | 47 | 1015.4 |
| 20260905053024 | 80 | 308 | 2.0 | 4.0 | 0.00 | 0.00 | 0.00 | 50 | 1015.4 |
| 20260905051521 | 79 | 280 | 1.0 | 3.0 | 0.00 | 0.00 | 0.00 | 54 | 1015.4 |
| 20260905050022 | 78 | 279 | 0.0 | 3.0 | 0.00 | 0.00 | 0.00 | 55 | 1015.4 |
| 20260905044514 | 77 | 279 | 0.0 | 3.0 | 0.00 | 0.00 | 0.00 | 57 | 1015.2 |
| 20260905043008 | 76 | 328 | 1.0 | 3.0 | 0.00 | 0.00 | 0.00 | 57 | 1015.1 |
| 20260905041508 | 75 | 328 | 0.0 | 2.0 | 0.00 | 0.00 | 0.00 | 58 | 1014.7 |
| 20260905040004 | 76 | 328 | 0.0 | 1.0 | 0.00 | 0.00 | 0.00 | 57 | 1014.5 |
| 20260905034504 | 76 | 329 | 2.0 | 8.0 | 0.00 | 0.00 | 0.00 | 57 | 1014.4 |
| 20260905033003 | 76 | 51 | 0.0 | 2.0 | 0.00 | 0.00 | 0.00 | 59 | 1014.5 |
| 20260905031500 | 76 | 51 | 0.0 | 2.0 | 0.00 | 0.00 | 0.00 | 57 | 1014.4 |
| 20260905030104 | 76 | 51 | 0.0 | 1.0 | 0.00 | 0.00 | 0.00 | 58 | 1014.4 |
| 20260905024604 | 77 | 51 | 0.0 | 3.0 | 0.00 | 0.00 | 0.00 | 58 | 1014.4 |
| 20260905023058 | 77 | 52 | 0.0 | 3.0 | 0.00 | 0.00 | 0.00 | 58 | 1014.4 |
| 20260905021556 | 77 | 51 | 0.0 | 3.0 | 0.00 | 0.00 | 0.00 | 56 | 1014.5 |
| 20260905020056 | 77 | 61 | 1.0 | 4.0 | 0.00 | 0.00 | 0.00 | 55 | 1014.5 |
| 20260905014558 | 77 | 338 | 0.0 | 6.0 | 0.00 | 0.00 | 0.00 | 52 | 1014.5 |
| 20260905013058 | 78 | 337 | 0.0 | 4.0 | 0.00 | 0.00 | 0.00 | 50 | 1014.3 |
| 20260905011552 | 78 | 344 | 1.0 | 4.0 | 0.00 | 0.00 | 0.00 | 50 | 1014.3 |
| 20260905010051 | 78 | 331 | 3.0 | 6.0 | 0.00 | 0.00 | 0.00 | 49 | 1014.4 |
| 20260905004609 | 78 | 314 | 1.0 | 4.0 | 0.00 | 0.00 | 0.00 | 48 | 1014.4 |
| 20260905003055 | 78 | 32 | 1.0 | 5.0 | 0.00 | 0.00 | 0.00 | 47 | 1014.5 |
| 20260905001549 | 78 | 279 | 0.0 | 8.0 | 0.00 | 0.00 | 0.00 | 46 | 1014.4 |
| 20260905000050 | 78 | 164 | 0.0 | 8.0 | 0.00 | 0.00 | 0.00 | 46 | 1014.4 |
| 20260904234548 | 77 | 343 | 1.0 | 5.0 | 0.00 | 0.00 | 0.00 | 47 | 1014.5 |
| 20260904233046 | 77 | 328 | 0.0 | 1.0 | 0.00 | 0.00 | 0.00 | 48 | 1014.5 |